Location: Cardiff
(53.7833°N, 113.6000°W)
Time: 18:05:16
(UTC+00:00)

NOAA 15 - Pass Details

Date: 12 December 2023
Orbit: 796 x 810 km, 98.6° (Epoch: 21 February)

Event Time Altitude Azimuth Distance (km) Brightness Sun altitude
Rises 02:59:39 0° 188° (S) 3,315 7.8 -31.9°
Reaches altitude 10° 03:02:09 10° 197° (SSW) 2,387 7.1 -32.2°
Maximum altitude 03:07:01 37° 264° (W) 1,238 5.9 -33.0°
Drops below altitude 10° 03:11:55 10° 331° (NNW) 2,395 7.4 -33.7°
Sets 03:14:27 0° 340° (NNW) 3,328 8.1 -34.0°
